{"data":{"norad_id":58548,"epoch":"2026-09-20T08:27:22.053312Z","epoch_age_seconds":159524,"freshness":"FRESH","line1":"1 58548U 23192T   26263.35233858  .00002308  00000+0  79408-4 0  9997","line2":"2 58548  53.1578 236.0606 0001239  86.0710 274.0434 15.34400548155820","mean_motion":15.34400548,"eccentricity":0.0001239,"inclination_deg":53.1578,"raan_deg":236.0606,"arg_perigee_deg":86.071,"mean_anomaly_deg":274.0434,"bstar":7.9408e-5,"rev_number":15582,"period_min":93.84772456429,"perigee_km":461.85403153215,"apogee_km":463.54919134006,"semimajor_km":6840.8386114361,"source":"CELESTRAK","updated_at":"2026-09-21T09:00:33.915658Z"}}